Weather History for Centralia, IL

Change the Weather History Date:

Wednesday, November 21, 2012

  Actual Average (KSLO) Record (KSLO)
Temperature  
Mean Temperature 50 °F -  
Max Temperature 60 °F 51 °F 75 °F (1990)
Min Temperature 39 °F 32 °F 13 °F (1964)
Degree Days  
Heating Degree Days 16    
Moisture  
Dew Point 44 °F    
Average Humidity 88    
Maximum Humidity 100    
Minimum Humidity 61    
Precipitation  
Precipitation 0.00 in - - ()
Sea Level Pressure  
Sea Level Pressure 30.22 in    
Wind  
Wind Speed 1 mph (SW)    
Max Wind Speed 5 mph    
Max Gust Speed -    
Visibility 3 miles    
Events Fog    
Averages and records for this station are not official NWS values.
T = Trace of Precipitation, MM = Missing Value Source: NWS Daily Summary

Daily Weather History Graph

Daily Weather History Graph

Search for Another Location

Airport:

Trip Planner

Search our weather history database for the weather conditions in past years. The results will help you decide how hot, cold, wet, or windy it might be!

Date:

Astronomy

Nov. 21, 2012 Rise Set
Actual Time 6:45 AM CST 4:39 PM CST
Civil Twilight 6:16 AM CST 5:07 PM CST
Nautical Twilight 5:44 AM CST 5:40 PM CST
Astronomical Twilight 5:12 AM CST 6:11 PM CST
Moon 12:51 PM CST (11/21) 12:08 AM CST (11/21)
Length of Visible Light 10h 51m
Length of Day
9h 54m
First Quarter, 62% of the Moon is Illuminated
Nov 21
First Quarter
Nov 28
Full
Dec 6
Last Quarter
Dec 13
New
Dec 19
First Quarter

Hourly Weather History & Observations

Time (CST) Temp. Windchill Dew Point Humidity Pressure Visibility Wind Dir Wind Speed Gust Speed Precip Events Conditions
12:15 AM 50.9 °F - 47.8 °F 89% 30.17 in 5.0 mi Calm Calm - N/A   Scattered Clouds
12:35 AM 50.0 °F - 47.7 °F 92% 30.18 in 4.0 mi Calm Calm - N/A   Clear
12:55 AM 49.8 °F - 47.7 °F 92% 30.19 in 3.0 mi Calm Calm - N/A   Clear
1:15 AM 49.3 °F - 47.3 °F 93% 30.18 in 2.5 mi Calm Calm - N/A   Clear
1:35 AM 49.8 °F - 48.0 °F 94% 30.19 in 4.0 mi Calm Calm - N/A   Clear
1:55 AM 46.8 °F - 44.6 °F 92% 30.20 in 2.5 mi Calm Calm - N/A   Clear
2:15 AM 46.6 °F - 44.6 °F 93% 30.20 in 1.8 mi Calm Calm - N/A   Mist
2:35 AM 46.9 °F - 45.1 °F 93% 30.20 in 1.5 mi Calm Calm - N/A   Mist
2:55 AM 47.3 °F - 45.5 °F 93% 30.20 in 0.5 mi Calm Calm - N/A Fog Fog
3:15 AM 46.4 °F - 44.8 °F 94% 30.20 in 0.2 mi Calm Calm - N/A Fog Fog
3:35 AM 43.7 °F - 42.1 °F 94% 30.21 in 0.2 mi Calm Calm - N/A Fog Fog
3:55 AM 43.0 °F - 41.4 °F 94% 30.21 in 0.2 mi Calm Calm - N/A Fog Fog
4:15 AM 42.8 °F - 41.4 °F 95% 30.22 in 0.2 mi Calm Calm - N/A Fog Fog
4:35 AM 41.4 °F - 40.1 °F 95% 30.23 in 0.2 mi Calm Calm - N/A Fog Fog
4:55 AM 41.2 °F - 40.1 °F 96% 30.23 in 0.2 mi Calm Calm - N/A Fog Fog
5:15 AM 40.3 °F - 39.2 °F 96% 30.23 in 0.2 mi Calm Calm - N/A Fog Fog
5:35 AM 39.7 °F - 38.5 °F 95% 30.23 in 0.2 mi Calm Calm - N/A Fog Fog
5:55 AM 39.2 °F - 39.2 °F 100% 30.23 in 0.2 mi Calm Calm - N/A Fog Fog
6:15 AM 39.7 °F - 38.5 °F 95% 30.23 in 0.2 mi Calm Calm - N/A Fog Fog
6:35 AM 40.1 °F - 38.7 °F 95% 30.24 in 0.2 mi Calm Calm - N/A Fog Fog
6:55 AM 39.6 °F - 38.5 °F 96% 30.24 in 0.2 mi Calm Calm - N/A Fog Fog
7:15 AM 39.6 °F - 38.5 °F 96% 30.24 in 0.2 mi Calm Calm - N/A Fog Fog
7:35 AM 39.9 °F - 38.7 °F 95% 30.25 in 0.2 mi Calm Calm - N/A Fog Fog
7:55 AM 41.0 °F - 39.7 °F 95% 30.26 in 0.2 mi Calm Calm - N/A Fog Fog
8:15 AM 42.3 °F - 41.0 °F 95% 30.27 in 0.2 mi Calm Calm - N/A Fog Fog
8:35 AM 43.5 °F - 42.3 °F 95% 30.28 in 0.2 mi Calm Calm - N/A Fog Fog
8:55 AM 43.9 °F - 42.6 °F 95% 30.28 in 0.2 mi Calm Calm - N/A Fog Fog
9:15 AM 44.6 °F - 43.0 °F 94% 30.29 in 0.2 mi Calm Calm - N/A Fog Fog
9:35 AM 45.5 °F - 43.9 °F 94% 30.28 in 0.2 mi Calm Calm - N/A Fog Fog
9:55 AM 46.0 °F - 44.8 °F 95% 30.29 in 0.2 mi Calm Calm - N/A Fog Fog
10:15 AM 47.5 °F - 46.0 °F 95% 30.29 in 0.2 mi Calm Calm - N/A Fog Fog
10:35 AM 48.4 °F - 46.9 °F 95% 30.28 in 0.2 mi Calm Calm - N/A Fog Fog
10:55 AM 51.1 °F - 49.6 °F 95% 30.28 in 4.0 mi Calm Calm - N/A   Mist
11:15 AM 52.7 °F - 51.1 °F 94% 30.27 in 5.0 mi Calm Calm - N/A   Mist
11:35 AM 53.4 °F - 50.4 °F 89% 30.26 in 7.0 mi Calm Calm - N/A   Unknown
11:55 AM 55.0 °F - 50.4 °F 84% 30.26 in 5.0 mi WSW 4.6 mph - N/A   Haze
12:15 PM 57.4 °F - 48.9 °F 73% 30.25 in 7.0 mi WSW 3.5 mph - N/A   Unknown
12:35 PM 58.3 °F - 49.3 °F 72% 30.25 in 7.0 mi West 4.6 mph - N/A   Unknown
12:55 PM 59.2 °F - 49.3 °F 70% 30.24 in 7.0 mi West 4.6 mph - N/A   Unknown
1:15 PM 59.5 °F - 48.7 °F 67% 30.24 in 7.0 mi WSW 3.5 mph - N/A   Unknown
1:35 PM 59.5 °F - 47.8 °F 65% 30.23 in 7.0 mi West 4.6 mph - N/A   Clear
1:55 PM 60.1 °F - 48.0 °F 64% 30.23 in 10.0 mi WSW 3.5 mph - N/A   Clear
2:15 PM 60.1 °F - 47.8 °F 64% 30.22 in 7.0 mi West 3.5 mph - N/A   Clear
2:35 PM 60.1 °F - 47.3 °F 63% 30.22 in 10.0 mi Calm Calm - N/A   Clear
2:55 PM 60.3 °F - 47.3 °F 62% 30.21 in 7.0 mi Calm Calm - N/A   Clear
3:15 PM 60.4 °F - 47.1 °F 61% 30.21 in 7.0 mi Calm Calm - N/A   Clear
3:35 PM 60.1 °F - 48.0 °F 64% 30.21 in 7.0 mi Calm Calm - N/A   Clear
3:55 PM 59.2 °F - 48.6 °F 68% 30.21 in 7.0 mi West 3.5 mph - N/A   Clear
4:15 PM 58.1 °F - 48.4 °F 70% 30.20 in 7.0 mi WSW 3.5 mph - N/A   Clear
4:35 PM 56.8 °F - 48.4 °F 73% 30.20 in 7.0 mi WSW 3.5 mph - N/A   Clear
4:55 PM 55.9 °F - 48.4 °F 76% 30.20 in 7.0 mi Calm Calm - N/A   Clear
5:15 PM 52.0 °F - 47.5 °F 85% 30.20 in 5.0 mi Calm Calm - N/A   Haze
5:35 PM 49.8 °F - 46.6 °F 89% 30.20 in 5.0 mi Calm Calm - N/A   Clear
5:55 PM 49.1 °F - 46.2 °F 90% 30.20 in 5.0 mi Calm Calm - N/A   Clear
6:15 PM 48.0 °F - 45.5 °F 91% 30.20 in 4.0 mi Calm Calm - N/A   Clear
6:35 PM 46.8 °F - 44.6 °F 92% 30.20 in 3.0 mi Calm Calm - N/A   Clear
6:55 PM 46.6 °F - 44.6 °F 93% 30.19 in 3.0 mi Calm Calm - N/A   Clear
7:15 PM 45.9 °F - 43.9 °F 93% 30.19 in 2.5 mi Calm Calm - N/A   Clear
7:35 PM 44.8 °F - 42.6 °F 92% 30.19 in 2.5 mi Calm Calm - N/A   Clear
7:55 PM 43.9 °F - 41.9 °F 93% 30.19 in 2.0 mi Calm Calm - N/A   Clear
8:15 PM 43.7 °F - 41.7 °F 93% 30.19 in 2.5 mi Calm Calm - N/A   Clear
8:35 PM 43.5 °F - 41.7 °F 93% 30.19 in 3.0 mi Calm Calm - N/A   Clear
8:55 PM 43.0 °F - 41.0 °F 93% 30.19 in 2.5 mi Calm Calm - N/A   Clear
9:15 PM 42.8 °F - 41.0 °F 93% 30.19 in 2.0 mi Calm Calm - N/A   Clear
9:35 PM 42.1 °F 39.2 °F 40.3 °F 93% 30.19 in 2.0 mi SE 4.6 mph - N/A   Clear
9:55 PM 43.0 °F 41.3 °F 41.2 °F 93% 30.18 in 3.0 mi SE 3.5 mph - N/A   Clear
10:15 PM 41.2 °F - 39.4 °F 93% 30.18 in 3.0 mi Calm Calm - N/A   Clear
10:35 PM 42.3 °F 39.4 °F 40.5 °F 93% 30.17 in 2.5 mi SE 4.6 mph - N/A   Clear
10:55 PM 43.3 °F 40.7 °F 41.4 °F 93% 30.17 in 4.0 mi SE 4.6 mph - N/A   Clear
11:15 PM 41.7 °F - 39.9 °F 93% 30.18 in 3.0 mi Calm Calm - N/A   Clear
11:35 PM 43.5 °F 41.9 °F 41.4 °F 92% 30.18 in 3.0 mi SSE 3.5 mph - N/A   Clear
11:55 PM 45.3 °F 43.0 °F 43.3 °F 93% 30.18 in 3.0 mi SSE 4.6 mph - N/A   Clear